Weather in Gosford

Australia     33°25′01″S   151°20′38″E
temp.,
°C
wind,
m/s
gust,
m/s
humid.,
%
clouds,
%
prec.,
mm/h
press.,
hPa
HPBL,
m
29 may, sun
sun2901:00+10w24951 0.0 1010126
04:00+9w249313 0.0 1009108
07:00+8w25930 0.0 1009137
10:00+13w36710 0.0 1008422
13:00+16wsw35490 0.0 10051069
16:00+15ssw12550 0.0 1005140
19:00+10wnw22720 0.0 100654
22:00+8wnw28780 0.0 1006197
30 may, mon
mon3001:00+7wnw258119 0.0 1005122
04:00+8nw39781 0.0 1003214
07:00+7nw287877 0.0 1004158
10:00+14nw385756 0.0 1002662
13:00+17n5105472 0.0 9961463
16:00+13nnw5187237 0.0 9921378
19:00+11wnw614834 4.6 9931117
22:00+10nw617734 4.6 9931385
31 may, tue
tue3101:00+11wnw719643 0.0 9921599
04:00+10wnw6177096 0.0 9941599
07:00+11wnw6166725 0.0 9961523
10:00+13wnw614601 0.0 9981324
13:00+15wnw6185237 0.0 9982000
16:00+12w6186171 0.1 10002027
19:00+10w618572 0.0 10031751
22:00+9wnw4116212 0.0 10051010
1 june, wed
wed101:00+10wnw4156193 0.0 10052048
04:00+8wnw4116183 0.0 10061509
07:00+7wnw515595 0.0 10081415
10:00+10w615501 0.0 10101491
13:00+13w614440 0.0 10091834
16:00+10w616510 0.0 10111566
19:00+8w411580 0.0 1014732
22:00+7w311640 0.0 1015504
2 june, thu
thu201:00+5w25740 0.0 1016154
04:00+4w23780 0.0 101792
07:00+4wnw23800 0.0 102073
10:00+10w36541 0.0 1021405
13:00+14sw234774 0.0 10191041
16:00+12wsw1162100 0.0 1019143
19:00+10nw1169100 0.0 102031
22:00+8nw1175100 0.0 102034